Weather History for Walla Walla, WA

Change the Weather History Date:

Friday, January 24, 2014

  Actual Average Record
Temperature  
Mean Temperature 31 °F -  
Max Temperature 32 °F 43 °F 64 °F (1953)
Min Temperature 30 °F 31 °F -3 °F (1957)
Degree Days  
Heating Degree Days 34    
Moisture  
Dew Point 27 °F    
Average Humidity 87    
Maximum Humidity 92    
Minimum Humidity 82    
Precipitation  
Precipitation 0.00 in - - ()
Sea Level Pressure  
Sea Level Pressure 30.65 in    
Wind  
Wind Speed 2 mph (North)    
Max Wind Speed 8 mph    
Max Gust Speed -    
Visibility 6 miles    
Events Snow    
Averages and records for this station are not official NWS values.
T = Trace of Precipitation, MM = Missing Value Source: NWS Daily Summary

Daily Weather History Graph

Daily Weather History Graph

Search for Another Location

Airport:

Trip Planner

Search our weather history database for the weather conditions in past years. The results will help you decide how hot, cold, wet, or windy it might be!

Date:

Astronomy

Jan. 24, 2014 Rise Set
Actual Time 7:24 AM PST 4:46 PM PST
Civil Twilight 6:51 AM PST 5:19 PM PST
Nautical Twilight 6:15 AM PST 5:56 PM PST
Astronomical Twilight 5:39 AM PST 6:31 PM PST
Moon 12:52 AM PST (1/24) 11:11 AM PST (1/24)
Length of Visible Light 10h 27m
Length of Day
9h 22m
Last Quarter, 43% of the Moon is Illuminated
Jan 24
Last Quarter
Jan 30
New
Feb 6
First Quarter
Feb 14
Full
Feb 22
Last Quarter

Hourly Weather History & Observations

Time (PST) Temp. Windchill Dew Point Humidity Pressure Visibility Wind Dir Wind Speed Gust Speed Precip Events Conditions
12:53 AM 30.9 °F - 28.0 °F 89% 30.70 in 10.0 mi Calm Calm - N/A   Overcast
1:53 AM 30.9 °F 27.5 °F 27.0 °F 85% 30.70 in 9.0 mi SE 3.5 mph - N/A   Overcast
2:53 AM 30.0 °F 26.5 °F 27.0 °F 88% 30.70 in 7.0 mi South 3.5 mph - N/A   Overcast
3:53 AM 30.0 °F - 27.0 °F 88% 30.72 in 8.0 mi Calm Calm - N/A   Overcast
4:53 AM 30.0 °F - 28.0 °F 92% 30.70 in 7.0 mi Calm Calm - N/A   Overcast
5:53 AM 30.0 °F - 28.0 °F 92% 30.69 in 7.0 mi Calm Calm - N/A   Overcast
6:53 AM 30.0 °F 26.5 °F 28.0 °F 92% 30.70 in 6.0 mi ENE 3.5 mph - N/A   Overcast
7:53 AM 30.0 °F - 26.1 °F 85% 30.71 in 5.0 mi Calm Calm - N/A   Overcast
8:28 AM 30.0 °F - 26.1 °F 85% 30.65 in 5.0 mi Calm Calm - N/A   Overcast
8:53 AM 30.0 °F 26.5 °F 26.1 °F 85% 30.70 in 6.0 mi South 3.5 mph - 0.00 in Snow Light Snow
9:44 AM 30.0 °F - 26.1 °F 85% 30.66 in 9.0 mi Calm Calm - 0.00 in   Overcast
9:53 AM 30.0 °F - 26.1 °F 85% 30.71 in 7.0 mi Calm Calm - 0.00 in   Overcast
10:53 AM 30.9 °F 26.2 °F 26.1 °F 82% 30.71 in 8.0 mi NNW 4.6 mph - N/A   Overcast
11:09 AM 30.9 °F 27.5 °F 26.1 °F 82% 30.66 in 6.0 mi NNE 3.5 mph - N/A   Haze
11:53 AM 30.9 °F 27.5 °F 27.0 °F 85% 30.70 in 6.0 mi Variable 3.5 mph - 0.00 in   Overcast
12:32 PM 30.9 °F - 27.0 °F 85% 30.64 in 5.0 mi Calm Calm - N/A   Overcast
12:45 PM 30.9 °F - 27.0 °F 85% 30.64 in 4.0 mi Calm Calm - N/A   Overcast
12:53 PM 30.9 °F - 27.0 °F 85% 30.68 in 6.0 mi Calm Calm - N/A   Overcast
1:35 PM 32.0 °F - 27.0 °F 82% 30.62 in 1.8 mi Calm Calm - 0.00 in Snow Light Snow
1:53 PM 30.9 °F - 28.0 °F 89% 30.66 in 1.2 mi Calm Calm - 0.00 in Snow Light Snow
2:01 PM 30.9 °F - 28.0 °F 89% 30.61 in 3.0 mi Calm Calm - 0.00 in   Overcast
2:07 PM 30.9 °F - 28.0 °F 89% 30.61 in 2.5 mi Calm Calm - 0.00 in Snow Light Snow
2:20 PM 30.9 °F 27.5 °F 27.0 °F 85% 30.61 in 4.0 mi ENE 3.5 mph - 0.00 in   Overcast
2:53 PM 30.9 °F 27.5 °F 27.0 °F 85% 30.66 in 7.0 mi ENE 3.5 mph - 0.00 in   Overcast
3:10 PM 32.0 °F - 27.0 °F 82% 30.61 in 5.0 mi Calm Calm - N/A   Haze
3:17 PM 30.9 °F - 27.0 °F 85% 30.61 in 4.0 mi Calm Calm - N/A   Overcast
3:53 PM 30.9 °F - 27.0 °F 85% 30.64 in 4.0 mi Calm Calm - N/A   Overcast
4:08 PM 30.9 °F - 27.0 °F 85% 30.59 in 7.0 mi Calm Calm - N/A   Overcast
4:53 PM 30.9 °F - 27.0 °F 85% 30.63 in 10.0 mi Calm Calm - N/A   Overcast
5:09 PM 30.9 °F - 27.0 °F 85% 30.59 in 10.0 mi Calm Calm - N/A   Overcast
5:53 PM 30.9 °F 27.5 °F 27.0 °F 85% 30.63 in 10.0 mi North 3.5 mph - N/A   Overcast
6:53 PM 30.9 °F 25.2 °F 27.0 °F 85% 30.62 in 6.0 mi North 5.8 mph - N/A   Overcast
7:53 PM 30.9 °F 23.5 °F 28.0 °F 89% 30.61 in 9.0 mi North 8.1 mph - 0.00 in   Overcast
8:53 PM 30.0 °F 25.2 °F 28.0 °F 92% 30.63 in 7.0 mi West 4.6 mph - N/A   Overcast
9:53 PM 30.0 °F 25.2 °F 28.0 °F 92% 30.63 in 5.0 mi WSW 4.6 mph - N/A   Overcast
10:11 PM 30.0 °F 26.5 °F 28.0 °F 92% 30.59 in 1.8 mi WSW 3.5 mph - 0.00 in Snow Light Snow
10:53 PM 30.0 °F - 28.0 °F 92% 30.63 in 2.0 mi Calm Calm - 0.00 in Snow Light Snow
11:07 PM 30.0 °F - 28.0 °F 92% 30.58 in 4.0 mi Calm Calm - 0.00 in   Overcast
11:15 PM 30.0 °F - 28.0 °F 92% 30.58 in 4.0 mi Calm Calm - 0.00 in   Overcast
11:53 PM 30.0 °F 23.2 °F 28.0 °F 92% 30.62 in 3.0 mi WSW 6.9 mph - 0.00 in   Overcast